| time (UTC) | temp F | wind direction | speed knots | gust knots | rain 1hr in | rain 24hr in | rain mn in | humidity % | barometer mb |
| 20260505223011 | 79 | 345 | 7.0 | 15.6 | 0.00 | 0.00 | 0.00 | 27 | 1010.8 |
| 20260505221510 | 79 | 348 | 3.5 | 15.6 | 0.00 | 0.00 | 0.00 | 27 | 1010.9 |
| 20260505220115 | 78 | 321 | 9.6 | 15.6 | 0.00 | 0.00 | 0.00 | 26 | 1011.0 |
| 20260505214510 | 78 | 322 | 7.8 | 13.9 | 0.00 | 0.00 | 0.00 | 28 | 1011.0 |
| 20260505213008 | 78 | 324 | 9.6 | 14.8 | 0.00 | 0.00 | 0.00 | 28 | 1011.0 |
| 20260505211508 | 78 | 9 | 8.7 | 13.9 | 0.00 | 0.00 | 0.00 | 30 | 1011.0 |
| 20260505210050 | 77 | 5 | 1.7 | 7.0 | 0.00 | 0.00 | 0.00 | 31 | 1011.1 |
| 20260505204553 | 76 | 29 | 1.7 | 12.2 | 0.00 | 0.00 | 0.00 | 34 | 1011.2 |
| 20260505203044 | 76 | 5 | 2.6 | 11.3 | 0.00 | 0.00 | 0.00 | 38 | 1011.3 |
| 20260505201534 | 75 | 315 | 4.3 | 12.2 | 0.00 | 0.00 | 0.00 | 39 | 1011.4 |
| 20260505200036 | 74 | 343 | 0.9 | 11.3 | 0.00 | 0.00 | 0.00 | 41 | 1011.5 |
| 20260505194533 | 74 | 306 | 5.2 | 10.4 | 0.00 | 0.00 | 0.00 | 41 | 1011.7 |
| 20260505193033 | 73 | 280 | 0.0 | 10.4 | 0.00 | 0.00 | 0.00 | 43 | 1011.9 |
| 20260505191532 | 72 | 305 | 3.5 | 7.8 | 0.00 | 0.00 | 0.00 | 44 | 1012.0 |
| 20260505190031 | 71 | 337 | 1.7 | 8.7 | 0.00 | 0.00 | 0.00 | 45 | 1012.1 |
| 20260505184531 | 70 | 286 | 4.3 | 7.8 | 0.00 | 0.00 | 0.00 | 47 | 1012.2 |
| 20260505183018 | 70 | 110 | 0.9 | 7.8 | 0.00 | 0.00 | 0.00 | 47 | 1012.2 |
| 20260505181517 | 69 | 304 | 2.6 | 7.8 | 0.00 | 0.00 | 0.00 | 47 | 1012.2 |
| 20260505180017 | 68 | 276 | 2.6 | 8.7 | 0.00 | 0.00 | 0.00 | 47 | 1012.0 |
| 20260505174517 | 67 | 326 | 1.7 | 7.0 | 0.00 | 0.00 | 0.00 | 48 | 1012.2 |
| 20260505173034 | 67 | 44 | 0.0 | 4.3 | 0.00 | 0.00 | 0.00 | 52 | 1012.2 |
| 20260505171516 | 66 | 53 | 1.7 | 7.0 | 0.00 | 0.00 | 0.00 | 54 | 1012.2 |
| 20260505170022 | 64 | 5 | 1.7 | 4.3 | 0.00 | 0.00 | 0.00 | 55 | 1012.2 |
| 20260505164532 | 63 | 30 | 2.6 | 4.3 | 0.00 | 0.00 | 0.00 | 59 | 1012.2 |
| 20260505163111 | 60 | 349 | 0.9 | 3.5 | 0.00 | 0.00 | 0.00 | 61 | 1012.3 |
| 20260505161510 | 58 | 301 | 0.9 | 3.5 | 0.00 | 0.00 | 0.00 | 62 | 1012.3 |
| 20260505153051 | 54 | 94 | 0.0 | 0.0 | 0.00 | 0.00 | 0.00 | 64 | 1012.5 |
| 20260505151545 | 53 | 94 | 0.0 | 1.7 | 0.00 | 0.00 | 0.00 | 65 | 1012.3 |
| 20260505124520 | 48 | 128 | 3.5 | 7.0 | 0.00 | 0.00 | 0.00 | 70 | 1011.3 |
| 20260505123013 | 49 | 140 | 1.7 | 3.5 | 0.00 | 0.00 | 0.00 | 66 | 1011.3 |
| 20260505121511 | 50 | 142 | 3.5 | 7.8 | 0.00 | 0.00 | 0.00 | 65 | 1011.3 |
| 20260505120009 | 50 | 123 | 0.0 | 5.2 | 0.00 | 0.00 | 0.00 | 64 | 1011.1 |
| 20260505114508 | 50 | 137 | 0.9 | 4.3 | 0.00 | 0.00 | 0.00 | 64 | 1011.1 |
| 20260505113100 | 50 | 125 | 1.7 | 7.0 | 0.00 | 0.00 | 0.00 | 65 | 1010.9 |
| 20260505111557 | 50 | 132 | 0.9 | 6.1 | 0.00 | 0.00 | 0.00 | 64 | 1010.9 |
| 20260505101542 | 51 | 136 | 0.0 | 5.2 | 0.00 | 0.00 | 0.00 | 60 | 1010.5 |
| 20260505100048 | 51 | 173 | 1.7 | 5.2 | 0.00 | 0.00 | 0.00 | 59 | 1010.5 |
| 20260505094536 | 52 | 150 | 1.7 | 4.3 | 0.00 | 0.00 | 0.00 | 58 | 1010.5 |
| 20260505093023 | 52 | 149 | 0.0 | 4.3 | 0.00 | 0.00 | 0.00 | 56 | 1010.5 |
| 20260505091520 | 53 | 136 | 4.3 | 8.7 | 0.00 | 0.00 | 0.00 | 55 | 1010.5 |
| 20260505090024 | 54 | 126 | 1.7 | 9.6 | 0.00 | 0.00 | 0.00 | 53 | 1010.4 |
| 20260505084514 | 54 | 167 | 4.3 | 7.8 | 0.00 | 0.00 | 0.00 | 53 | 1010.4 |
| 20260505083011 | 54 | 155 | 3.5 | 7.0 | 0.00 | 0.00 | 0.00 | 54 | 1010.4 |
| 20260505081510 | 54 | 128 | 0.0 | 1.7 | 0.00 | 0.00 | 0.00 | 53 | 1010.3 |
| 20260505080007 | 56 | 155 | 2.6 | 6.1 | 0.00 | 0.00 | 0.00 | 50 | 1010.3 |
| 20260505074505 | 56 | 163 | 2.6 | 5.2 | 0.00 | 0.00 | 0.00 | 51 | 1010.2 |
| 20260505073109 | 54 | 161 | 0.9 | 2.6 | 0.00 | 0.00 | 0.00 | 54 | 1010.2 |
| 20260505071548 | 56 | 216 | 0.0 | 0.9 | 0.00 | 0.00 | 0.00 | 53 | 1010.1 |
| 20260505070046 | 59 | 216 | 0.0 | 1.7 | 0.00 | 0.00 | 0.00 | 47 | 1010.0 |
| 20260505064541 | 60 | 210 | 2.6 | 5.2 | 0.00 | 0.00 | 0.00 | 50 | 1009.9 |
| 20260505063041 | 61 | 225 | 2.6 | 6.1 | 0.00 | 0.00 | 0.00 | 47 | 1009.7 |
| 20260505061546 | 61 | 221 | 2.6 | 5.2 | 0.00 | 0.00 | 0.00 | 44 | 1009.7 |
| 20260505060031 | 62 | 143 | 0.0 | 2.6 | 0.00 | 0.00 | 0.00 | 43 | 1009.5 |
| 20260505054529 | 63 | 175 | 0.0 | 3.5 | 0.00 | 0.00 | 0.00 | 42 | 1009.6 |
| 20260505053025 | 63 | 113 | 0.0 | 2.6 | 0.00 | 0.00 | 0.00 | 40 | 1009.6 |
| 20260505051607 | 63 | 114 | 0.0 | 3.5 | 0.00 | 0.00 | 0.00 | 37 | 1009.4 |
| 20260505041538 | 67 | 257 | 1.7 | 7.8 | 0.00 | 0.00 | 0.00 | 29 | 1008.8 |
| 20260505040038 | 68 | 264 | 0.0 | 6.1 | 0.00 | 0.00 | 0.00 | 30 | 1008.7 |
| 20260505034532 | 69 | 246 | 1.7 | 7.0 | 0.00 | 0.00 | 0.00 | 30 | 1008.5 |
| 20260505033035 | 70 | 261 | 1.7 | 10.4 | 0.00 | 0.00 | 0.00 | 29 | 1008.1 |
| 20260505031523 | 71 | 253 | 4.3 | 14.8 | 0.00 | 0.00 | 0.00 | 27 | 1007.9 |
| 20260505030020 | 72 | 296 | 7.0 | 15.6 | 0.00 | 0.00 | 0.00 | 26 | 1007.6 |
| 20260505024610 | 73 | 277 | 9.6 | 15.6 | 0.00 | 0.00 | 0.00 | 25 | 1007.4 |
| 20260505023054 | 76 | 292 | 6.1 | 9.6 | 0.00 | 0.00 | 0.00 | 24 | 1007.3 |
| 20260505021554 | 76 | 321 | 7.0 | 13.9 | 0.00 | 0.00 | 0.00 | 23 | 1007.1 |
| 20260505020044 | 77 | 324 | 5.2 | 12.2 | 0.00 | 0.00 | 0.00 | 24 | 1007.0 |
| 20260505014533 | 78 | 326 | 7.8 | 11.3 | 0.00 | 0.00 | 0.00 | 23 | 1007.1 |
| 20260505013032 | 78 | 309 | 4.3 | 8.7 | 0.00 | 0.00 | 0.00 | 23 | 1007.1 |
| 20260505011532 | 78 | 327 | 7.0 | 9.6 | 0.00 | 0.00 | 0.00 | 23 | 1007.2 |
| 20260505010025 | 79 | 323 | 6.1 | 12.2 | 0.00 | 0.00 | 0.00 | 24 | 1007.3 |
| 20260505004535 | 79 | 342 | 5.2 | 11.3 | 0.00 | 0.00 | 0.00 | 23 | 1007.5 |
| 20260505003021 | 79 | 340 | 8.7 | 14.8 | 0.00 | 0.00 | 0.00 | 23 | 1007.4 |
| 20260505001507 | 79 | 336 | 11.3 | 17.4 | 0.00 | 0.00 | 0.00 | 23 | 1007.5 |
| 20260505000007 | 80 | 360 | 6.1 | 11.3 | 0.00 | 0.00 | 0.00 | 23 | 1007.3 |
| 20260504234505 | 80 | 9 | 7.8 | 13.9 | 0.00 | 0.00 | 0.00 | 23 | 1007.5 |
| 20260504233003 | 80 | 355 | 7.0 | 12.2 | 0.00 | 0.00 | 0.00 | 24 | 1007.5 |
| 20260504231501 | 80 | 303 | 7.8 | 13.9 | 0.00 | 0.00 | 0.00 | 21 | 1007.8 |
| 20260504230104 | 80 | 277 | 2.6 | 7.8 | 0.00 | 0.00 | 0.00 | 21 | 1007.7 |
| 20260504224558 | 80 | 325 | 6.1 | 18.2 | 0.00 | 0.00 | 0.00 | 22 | 1008.0 |